Location: Mt. Bigelow
(32.4165°N, 110.7345°W)
Time: 17:24:11
(UTC-07:00)

Hubble Space Telescope - Visible Passes

Search period start: 17 June 2018 00:00
Search period end: 27 June 2018 00:00
Orbit: 537 x 541 km, 28.5° (Epoch: 17 June)

Date Brightness Start Highest point End Pass type
(mag) Time Alt. Az. Time Alt. Az. Time Alt. Az.
17 Jun 1.3 21:13:25 10° W 21:17:15 38° S 21:17:33 37° S visible
18 Jun 1.6 21:03:08 10° WSW 21:06:52 33° SSW 21:07:38 31° S visible
19 Jun 1.9 20:52:52 10° WSW 20:56:28 29° SSW 20:57:42 24° SSE visible
20 Jun 2.1 20:42:40 10° WSW 20:46:04 25° SSW 20:47:46 19° SSE visible
21 Jun 2.4 20:32:31 10° WSW 20:35:39 21° SSW 20:37:50 14° SSE visible
22 Jun 2.7 20:22:28 10° WSW 20:25:13 17° SSW 20:27:56 10° SSE visible
23 Jun 3.0 20:12:36 10° SW 20:14:47 14° SSW 20:16:58 10° S visible
24 Jun 3.2 20:03:11 10° SW 20:04:20 11° SSW 20:05:28 10° S visible
